This is the latest recevied weather packets stored in our database for station/object KO4ZGL-13. If no packets are shown the sender has not sent any weather packets the latest 10 day(s).
| Time | Temp. | Humidity | Pressure | Rain* | Wind** | Luminosity | Snow |
|---|---|---|---|---|---|---|---|
| 1788550641 | 35° C | 65% | 1015.3 hPa | 0 mm | - | 596 W/m² | - |
| 1788550337 | 34.44° C | 67% | 1015.4 hPa | 0 mm | - | 600 W/m² | - |
| 1788550037 | 34.44° C | 67% | 1015.5 hPa | 0 mm | - | 568 W/m² | - |
| 1788549732 | 34.44° C | 68% | 1015.4 hPa | 0 mm | - | 582 W/m² | - |
| 1788549429 | 35° C | 70% | 1015.4 hPa | 0 mm | - | 604 W/m² | - |
| 1788549125 | 35.56° C | 66% | 1015.7 hPa | 0 mm | - | 134 W/m² | - |
| 1788548821 | 35.56° C | 65% | 1015.4 hPa | 0 mm | - | 591 W/m² | - |
| 1788548517 | 35.56° C | 63% | 1015.5 hPa | 0 mm | - | 587 W/m² | - |
| 1788548213 | 35.56° C | 64% | 1015.6 hPa | 0 mm | - | 575 W/m² | - |
| 1788547908 | 35° C | 68% | 1015.8 hPa | 0 mm | - | 641 W/m² | - |
| 1788547606 | 35° C | 67% | 1016 hPa | 0 mm | - | 649 W/m² | - |
| 1788547302 | 35° C | 68% | 1015.8 hPa | 0 mm | - | 678 W/m² | - |
| 1788546998 | 35° C | 66% | 1015.9 hPa | 0 mm | - | 684 W/m² | - |
| 1788546698 | 33.89° C | 70% | 1015.8 hPa | 0 mm | - | 714 W/m² | - |
| 1788546393 | 33.33° C | 71% | 1015.9 hPa | 0 mm | - | 147 W/m² | - |
| 1788546088 | 33.89° C | 69% | 1015.9 hPa | 0 mm | - | 145 W/m² | - |
| 1788545784 | 34.44° C | 69% | 1016 hPa | 0 mm | - | 162 W/m² | - |
| 1788545478 | 34.44° C | 70% | 1016.3 hPa | 0 mm | - | 133 W/m² | - |
| 1788545173 | 35° C | 64% | 1016.2 hPa | 0 mm | - | 681 W/m² | - |
| 1788544869 | 35.56° C | 68% | 1016.3 hPa | 0 mm | - | 666 W/m² | - |
| 1788544568 | 35° C | 67% | 1016.4 hPa | 0 mm | - | 679 W/m² | - |
| 1788544267 | 35° C | 65% | 1016.4 hPa | 0 mm | - | 684 W/m² | - |
| 1788543961 | 34.44° C | 70% | 1016.3 hPa | 0 mm | - | 738 W/m² | - |
| 1788543658 | 32.78° C | 75% | 1016.4 hPa | 0 mm | - | 739 W/m² | - |
| 1788543358 | 32.78° C | 77% | 1016.6 hPa | 0 mm | - | 659 W/m² | - |
* Rain latest hour (hover to see other rain measurements)
** Current wind speed in m/s (hover to see current wind gust speed)